Home > Weather > Liezen > Past weeks

Flag for Austria Weather for the Past 2 Weeks in Liezen, Styria, Austria

Now
30 °F

Chilly.


Feels Like: 30 °F
Forecast: 30 / 45 °F
Wind: 1 mph from West

Location: Aigen Im Ennstal

Current Time: Feb 9, 2016 at 7:14:45 AM

Latest Report: Feb 9, 2016 at 5:00 AM


Visibility: N/A

Pressure: 29.96 "Hg (27.58 "Hg at 661m altitude)

Humidity: 93%

Dew point: 28 °F

Location of LiezenLocation

Historic Weather in Liezen — Graph

°F

Liezen Temperature Yesterday

Maximum temperature yesterday: 44 °F (at 4:00 PM)
Minimum temperature yesterday: 31 °F (at 10:00 PM)
Average temperature yesterday: 38 °F

High & Low Weather Summary for the Past Weeks

 TemperatureHumidityPressure
High53 °F (Feb 1, 10:00 AM)99% (Feb 6, 7:00 PM)30.55 "Hg (Feb 6, 7:00 PM)
Low27 °F (Feb 7, 8:00 AM)56% (Feb 4, 4:00 PM)29.77 "Hg (Feb 8, 4:00 PM)
Average35 °F89%30.27 "Hg
* Reported Jan 25 5:00 AM — Feb 9 5:00 AM, Liezen, Weather by CustomWeather, © 2016

Note: Actual official high and low records may vary slightly from our data, if they occured in-between our weather recording intervals... More about our weather records

Advertising

Liezen Weather History for the Previous 24 Hours

 ConditionsComfort  
Time TempWeatherWind HumidityBarometerVisibility
5:00 AM
Tue, Feb 9
30 °FChilly.1 mph93%29.96 "HgN/A
4:00 AM31 °FLow clouds.N/A90%29.97 "Hg9 mi
2:00 AM28 °FChilly.No wind94%29.93 "HgN/A
1:00 AM33 °FLow clouds.N/A92%29.91 "Hg12 mi
12:00 AM31 °FChilly.No wind96%29.92 "HgN/A
10:00 PM
Mon, Feb 8
31 °FPassing clouds.N/A93%29.88 "Hg12 mi
9:00 PM33 °FChilly.1 mph89%29.86 "HgN/A
8:00 PM36 °FChilly.No wind88%29.83 "HgN/A
7:00 PM37 °FPassing clouds.N/A85%29.81 "Hg19 mi
6:00 PM39 °FChilly.No wind82%29.79 "HgN/A
5:00 PM42 °FQuite cool.1 mph77%29.78 "HgN/A
4:00 PM44 °FPartly sunny.1 mph71%29.77 "Hg31 mi
3:00 PM41 °FQuite cool.1 mph76%29.78 "HgN/A
2:00 PM43 °FQuite cool.No wind73%29.79 "HgN/A
1:00 PM43 °FPartly sunny.N/A75%29.81 "Hg31 mi
12:00 PM42 °FQuite cool.1 mph78%29.87 "HgN/A
11:00 AM40 °FChilly.1 mph84%29.93 "HgN/A
10:00 AM34 °FFog.1 mph97%29.96 "Hg0 mi
9:00 AM35 °FChilly.No wind92%29.98 "HgN/A
8:00 AM35 °FChilly.1 mph94%29.98 "HgN/A
7:00 AM35 °FLight rain. Overcast.N/A94%29.98 "Hg9 mi
Weather by CustomWeather, © 2016

See weather overviewHow to use our weather pages